Location: ?????????
(53.2086°N, 54.0693°E)
Time: 00:03:49
(UTC+00:00)

Cosmos 1536 - Pass Details

Date: 08 December 2019
Orbit: 540 x 559 km, 82.5° (Epoch: 18 January)

Event Time Altitude Azimuth Distance (km) Brightness Sun altitude
Rises 13:41:47 0° 351° (N) 2,748 6.3 -13.2°
Reaches altitude 10° 13:44:00 10° 356° (N) 1,845 5.3 -13.5°
Maximum altitude 13:48:00 55° 75° (ENE) 669 2.9 -14.1°
Drops below altitude 10° 13:51:56 10° 154° (SSE) 1,818 5.4 -14.6°
Sets 13:54:07 0° 159° (SSE) 2,703 6.3 -14.9°
